Weather History for Vicksburg, MS

Change the Weather History Date:

Thursday, June 13, 2013

  Actual Average Record
Temperature  
Mean Temperature 84 °F 79 °F  
Max Temperature 94 °F 90 °F 100 °F (1953)
Min Temperature 73 °F 68 °F 56 °F (1955)
Degree Days  
Heating Degree Days 0 0  
Month to date heating degree days 0 0  
Since 1 June heating degree days 0 0  
Since 1 July heating degree days 2332 2351  
Cooling Degree Days 19 14  
Month to date cooling degree days 179 166  
Year to date cooling degree days 509 536  
Since 1 June cooling degree days 179 166  
Growing Degree Days 33 (Base 50)    
Moisture  
Dew Point 75 °F    
Average Humidity 77    
Maximum Humidity 97    
Minimum Humidity 56    
Precipitation  
Precipitation 0.00 in 0.14 in 2.18 in (1994)
Month to date precipitation 3.88 1.68  
Year to date precipitation 39.20 26.98  
Sea Level Pressure  
Sea Level Pressure 29.99 in    
Wind  
Wind Speed 4 mph (West)    
Max Wind Speed 12 mph    
Max Gust Speed 16 mph    
Visibility 10 miles    
Events      
T = Trace of Precipitation, MM = Missing Value Source: NWS Daily Summary

Daily Weather History Graph

Daily Weather History Graph

Search for Another Location

Airport:

Trip Planner

Search our weather history database for the weather conditions in past years. The results will help you decide how hot, cold, wet, or windy it might be!

Date:

Astronomy

Jun. 13, 2013 Rise Set
Actual Time 5:56 AM CDT 8:12 PM CDT
Civil Twilight 5:28 AM CDT 8:40 PM CDT
Nautical Twilight 4:53 AM CDT 9:15 PM CDT
Astronomical Twilight 4:15 AM CDT 9:52 PM CDT
Moon 10:20 AM CDT (6/13) 11:33 PM CDT (6/13)
Length of Visible Light 15h 12m
Length of Day
14h 15m
Waxing Crescent, 22% of the Moon is Illuminated
Jun 13
Waxing Crescent
Jun 16
First Quarter
Jun 23
Full
Jun 29
Last Quarter
Jul 8
New

Hourly Weather History & Observations

Time (CDT) Temp. Heat Index Dew Point Humidity Pressure Visibility Wind Dir Wind Speed Gust Speed Precip Events Conditions
12:53 AM 75.9 °F - 73.0 °F 91% 30.03 in 9.0 mi Calm Calm - N/A   Clear
1:53 AM 73.9 °F - 72.0 °F 93% 30.03 in 5.0 mi Calm Calm - N/A   Clear
2:53 AM 75.0 °F - 72.0 °F 90% 30.02 in 10.0 mi Calm Calm - N/A   Clear
3:53 AM 77.0 °F - 73.0 °F 88% 30.01 in 10.0 mi WSW 3.5 mph - N/A   Clear
4:53 AM 75.9 °F - 73.0 °F 91% 30.02 in 9.0 mi Calm Calm - N/A   Clear
5:53 AM 75.9 °F - 73.0 °F 91% 30.04 in 8.0 mi WSW 3.5 mph - N/A   Clear
6:53 AM 77.0 °F - 73.9 °F 90% 30.05 in 8.0 mi Variable 4.6 mph - N/A   Clear
7:53 AM 79.0 °F - 75.0 °F 88% 30.06 in 10.0 mi Variable 4.6 mph - N/A   Clear
8:53 AM 82.9 °F 90.8 °F 75.9 °F 79% 30.07 in 10.0 mi West 9.2 mph - N/A   Clear
9:53 AM 87.1 °F 98.8 °F 77.0 °F 72% 30.06 in 10.0 mi Variable 6.9 mph - N/A   Clear
10:53 AM 89.1 °F 100.2 °F 75.9 °F 65% 30.05 in 10.0 mi WNW 9.2 mph - N/A   Clear
11:53 AM 90.0 °F 101.3 °F 75.9 °F 63% 30.04 in 10.0 mi Variable 5.8 mph - N/A   Partly Cloudy
12:53 PM 91.9 °F 103.2 °F 75.0 °F 58% 30.02 in 10.0 mi West 8.1 mph - N/A   Scattered Clouds
1:53 PM 91.9 °F 103.2 °F 75.0 °F 58% 30.00 in 10.0 mi West 8.1 mph - N/A   Scattered Clouds
2:53 PM 93.0 °F 104.6 °F 75.0 °F 56% 29.98 in 10.0 mi West 4.6 mph - N/A   Scattered Clouds
3:53 PM 93.0 °F 104.6 °F 75.0 °F 56% 29.96 in 10.0 mi West 8.1 mph - N/A   Clear
4:53 PM 91.9 °F 103.2 °F 75.0 °F 58% 29.94 in 10.0 mi Variable 4.6 mph - N/A   Partly Cloudy
5:53 PM 91.9 °F 103.9 °F 75.9 °F 59% 29.92 in 10.0 mi WNW 4.6 mph - N/A   Clear
6:53 PM 90.0 °F 101.3 °F 75.9 °F 63% 29.90 in 10.0 mi West 4.6 mph - N/A   Clear
7:53 PM 84.9 °F 95.3 °F 77.0 °F 77% 29.90 in 10.0 mi Calm Calm - N/A   Clear
8:53 PM 81.0 °F 88.6 °F 78.1 °F 91% 29.90 in 10.0 mi Calm Calm - N/A   Clear
9:53 PM 79.0 °F - 77.0 °F 94% 29.92 in 10.0 mi Calm Calm - N/A   Clear
10:53 PM 81.0 °F 87.3 °F 75.9 °F 85% 29.92 in 10.0 mi Calm Calm - N/A   Clear
11:53 PM 78.1 °F - 75.9 °F 93% 29.93 in 9.0 mi Calm Calm - N/A   Clear